Stations météo

réclame
Mon MeteoGroup
Cabauw Tower, Pays-Bas (6348): Température de l'air & dewpoint: 18.01.2018 10:00:00 - 24.01.2018 10:00:00 (CET)Cabauw Tower, Pays-Bas (6348): Température de l'air 5cm: 18.01.2018 10:00:00 - 24.01.2018 10:00:00 (CET)Cabauw Tower, Pays-Bas (6348): Vitesse du vent & gusts: 18.01.2018 10:00:00 - 24.01.2018 10:00:00 (CET)Cabauw Tower, Pays-Bas (6348): Direction du vent: 18.01.2018 10:00:00 - 24.01.2018 10:00:00 (CET)Cabauw Tower, Pays-Bas (6348): reduced air pressure: 18.01.2018 10:00:00 - 24.01.2018 10:00:00 (CET)Cabauw Tower, Pays-Bas (6348): visibility: 18.01.2018 10:00:00 - 24.01.2018 10:00:00 (CET)Cabauw Tower, Pays-Bas (6348): Quantités de précipitations: 18.01.2018 10:00:00 - 24.01.2018 10:00:00 (CET)
Date & Time tt [°C] td [°C] tt 5cm [°C] ff [km/h] ff [knt] fx [km/h] fx [knt] dd ppp [hPa] vv [km] rr [mm]
24.01.2018 10:00:00 12,5 10,6 12,0 36 19 54 29 S 1012,2 49 0,0
24.01.2018 09:00:00 12,0 10,3 11,5 32 18 47 25 S 1012,9 30 0,0
24.01.2018 08:00:00 12,1 10,3 11,4 29 16 43 23 SSW 1013,5 38 0,0
24.01.2018 07:00:00 12,0 10,6 11,5 25 14 43 23 SSW 1014,0 27 0,0
24.01.2018 06:00:00 11,9 10,9 11,4 29 16 40 21 SSW 1014,3 23 0,0
24.01.2018 05:00:00 11,7 10,7 11,2 29 16 40 21 SSW 1014,9 21 0,0
24.01.2018 04:00:00 11,5 10,4 10,9 25 14 36 19 SW 1015,4 16 0,0
24.01.2018 03:00:00 11,0 10,0 10,3 25 14 40 21 SW 1016,0 15 0,0
24.01.2018 02:00:00 11,3 10,1 10,8 32 18 47 25 SW 1016,2 25 0,0
24.01.2018 01:00:00 11,1 10,4 10,6 32 18 43 23 SW 1016,1 18 0,1
24.01.2018 00:00:00 10,6 10,2 - 32 18 50 27 SW 1016,1 3,0 0,4
23.01.2018 23:00:00 10,8 9,9 10,4 40 21 54 29 SW 1015,6 7 0,1
23.01.2018 22:00:00 10,1 9,6 9,8 29 16 50 27 SSW 1015,7 3,2 0,0
23.01.2018 21:00:00 10,1 9,1 9,5 36 19 50 27 SSW 1015,7 9 0,0
23.01.2018 20:00:00 9,7 8,9 9,2 36 19 47 25 SSW 1015,8 6 0,0
23.01.2018 19:00:00 9,3 8,6 8,9 29 16 40 21 SSW 1016,3 4,7 0,2
23.01.2018 18:00:00 8,8 8,3 8,6 29 16 47 25 SSW 1016,5 2,2 0,1
23.01.2018 17:00:00 8,6 8,0 8,3 29 16 40 21 SSW 1016,6 13 0,1
23.01.2018 16:00:00 8,3 7,6 8,2 25 14 43 23 S 1017,0 3,9 0,0
23.01.2018 15:00:00 8,6 6,8 8,2 25 14 40 21 S 1017,4 15 0,2
23.01.2018 14:00:00 9,0 6,0 8,7 32 18 47 25 S 1018,0 11 0,0
23.01.2018 13:00:00 9,7 6,4 9,9 29 16 40 21 S 1018,8 24 0,0
23.01.2018 12:00:00 8,4 6,1 8,2 25 14 36 19 S 1019,5 19 0,0
23.01.2018 11:00:00 7,6 5,3 7,3 22 12 29 16 S 1019,8 24 0,0
23.01.2018 10:00:00 7,0 4,7 6,4 18 10 25 14 S 1019,8 21 0,0
23.01.2018 09:00:00 6,3 4,4 5,8 14 8 25 14 S 1020,0 17 0,0
23.01.2018 08:00:00 6,1 4,3 5,4 18 10 22 12 S 1019,8 17 0,0
23.01.2018 07:00:00 5,2 4,0 4,6 14 8 18 10 SSW 1019,8 17 0,0
23.01.2018 06:00:00 4,1 3,3 3,3 11 6 14 8 S 1019,8 22 0,0
23.01.2018 05:00:00 3,4 2,6 1,9 14 8 14 8 SSW 1019,6 19 0,0
23.01.2018 04:00:00 4,0 3,4 3,2 7 4 18 10 SSW 1019,6 15 0,0
23.01.2018 03:00:00 4,6 3,8 3,7 14 8 18 10 SSW 1019,3 15 0,0
23.01.2018 02:00:00 4,5 3,3 3,1 11 6 18 10 SW 1018,8 20 0,0
23.01.2018 01:00:00 6,0 4,2 5,0 18 10 25 14 W 1018,5 20 0,0
23.01.2018 00:00:00 6,7 4,6 5,8 18 10 22 12 WSW 1017,9 20 0,0
22.01.2018 23:00:00 6,9 4,8 6,2 14 8 22 12 W 1017,1 19 0,0
22.01.2018 22:00:00 6,8 4,7 6,0 14 8 25 14 WSW 1016,1 18 0,0
22.01.2018 21:00:00 6,7 4,9 5,8 14 8 22 12 WSW 1015,5 16 0,0
22.01.2018 20:00:00 5,8 4,1 5,0 14 8 22 12 W 1014,6 15 0,0
22.01.2018 19:00:00 6,6 4,5 5,9 18 10 29 16 WNW 1014,0 15 0,0
22.01.2018 18:00:00 7,3 4,7 6,5 18 10 36 19 WNW 1012,9 14 0,0
22.01.2018 17:00:00 7,4 5,0 6,9 18 10 29 16 W 1011,7 14 0,0
22.01.2018 16:00:00 7,7 5,2 7,4 18 10 25 14 WNW 1010,5 14 0,0
22.01.2018 15:00:00 8,1 5,3 8,0 18 10 29 16 WNW 1009,1 16 0,0
22.01.2018 14:00:00 8,5 5,4 8,5 22 12 29 16 WNW 1008,4 17 0,0
22.01.2018 13:00:00 8,3 5,4 8,3 22 12 29 16 WNW 1008,0 18 0,0
22.01.2018 12:00:00 7,8 5,5 7,5 14 8 32 18 W 1007,5 20 0,0
22.01.2018 11:00:00 7,9 5,4 7,3 11 6 22 12 WNW 1007,1 21 0,0
22.01.2018 10:00:00 7,3 5,2 6,9 14 8 25 14 W 1006,7 20 0,0
22.01.2018 09:00:00 7,3 5,1 6,6 22 12 29 16 W 1006,0 26 0,0
22.01.2018 08:00:00 6,7 5,6 5,9 14 8 22 12 W 1005,4 12 0,0
22.01.2018 07:00:00 6,3 6,0 5,8 14 8 25 14 WSW 1004,8 6 0,0
22.01.2018 06:00:00 4,5 4,4 4,1 14 8 18 10 SW 1004,3 1,7 0,1
22.01.2018 05:00:00 3,3 3,1 3,1 14 8 22 12 S 1004,6 2,1 0,0
22.01.2018 04:00:00 2,8 2,6 2,7 18 10 25 14 SSE 1004,7 1,7 0,1
22.01.2018 03:00:00 2,6 2,2 2,4 18 10 29 16 SSE 1005,5 6 0,0
22.01.2018 02:00:00 2,4 1,9 2,3 18 10 36 19 SSE 1006,2 3,5 0,1
22.01.2018 01:00:00 2,4 1,7 2,3 22 12 36 19 SE 1007,2 4,0 0,4
22.01.2018 00:00:00 2,4 1,6 2,2 22 12 36 19 SE 1008,4 8 0,4
21.01.2018 23:00:00 2,8 1,6 2,5 25 14 36 19 SE 1009,4 9 0,5
21.01.2018 22:00:00 3,0 1,7 2,7 22 12 36 19 SSE 1010,9 10 0,5
21.01.2018 21:00:00 3,4 2,3 3,1 14 8 25 14 SSE 1012,2 6 0,1
21.01.2018 20:00:00 3,5 2,3 3,1 14 8 22 12 SSE 1012,8 10 0,0
21.01.2018 19:00:00 3,3 2,1 2,8 14 8 22 12 SSE 1013,6 14 0,0
21.01.2018 18:00:00 3,6 2,2 2,9 14 8 18 10 SSE 1014,1 17 0,0
21.01.2018 17:00:00 4,0 2,6 3,4 11 6 18 10 S 1014,9 23 0,0
21.01.2018 16:00:00 4,7 2,9 4,4 11 6 14 8 S 1015,4 25 0,0
21.01.2018 15:00:00 5,1 2,9 4,9 11 6 18 10 SSW 1015,7 25 0,0
21.01.2018 14:00:00 5,8 1,9 6,2 14 8 18 10 SSW 1015,9 35 0,0
21.01.2018 13:00:00 5,7 2,7 6,6 11 6 14 8 SW 1015,9 29 0,0
21.01.2018 12:00:00 4,9 2,3 4,9 11 6 14 8 SW 1015,9 24 0,0
21.01.2018 11:00:00 2,6 0,9 1,8 7 4 14 8 WSW 1015,5 25 0,0
21.01.2018 10:00:00 1,3 -0,3 0,8 11 6 14 8 SW 1014,9 26 0,0
21.01.2018 09:00:00 1,0 -0,8 -1,3 7 4 14 8 W 1014,3 31 0,0
21.01.2018 08:00:00 -0,4 -1,8 -2,0 11 6 14 8 W 1013,5 31 0,0
21.01.2018 07:00:00 -0,2 -1,6 -1,6 11 6 14 8 W 1012,4 38 0,0
21.01.2018 06:00:00 0,1 -1,4 -1,3 11 6 14 8 W 1011,6 32 0,0
21.01.2018 05:00:00 1,3 -0,5 -1,1 11 6 18 10 WNW 1010,7 41 0,0
21.01.2018 04:00:00 2,2 -0,4 0,9 14 8 25 14 WNW 1009,5 41 0,0
21.01.2018 03:00:00 1,7 -0,2 0,8 11 6 18 10 WNW 1008,7 32 0,0
21.01.2018 02:00:00 1,7 0,4 0,6 14 8 18 10 WNW 1007,3 31 0,0
21.01.2018 01:00:00 2,2 1,2 1,2 11 6 18 10 WNW 1006,1 26 0,0
21.01.2018 00:00:00 2,8 1,9 1,7 14 8 22 12 WNW 1004,9 13 0,1
20.01.2018 23:00:00 2,4 1,9 2,3 7 4 14 8 W 1004,2 9 0,2
20.01.2018 22:00:00 2,4 2,0 2,3 7 4 18 10 WNW 1003,1 13 0,1
20.01.2018 21:00:00 1,4 1,0 0,8 7 4 7 4 WNW 1002,4 2,2 0,0
20.01.2018 20:00:00 1,5 1,4 0,3 7 4 7 4 NW 1001,5 1,2 0,0
20.01.2018 19:00:00 2,7 2,3 2,1 4 2 4 2 ESE 1000,8 4,4 0,1
20.01.2018 18:00:00 3,0 2,5 2,6 4 2 7 4 NE 1000,3 6 0,0
20.01.2018 17:00:00 3,1 2,5 2,8 7 4 14 8 S 999,8 15 0,0
20.01.2018 16:00:00 3,5 2,9 3,5 11 6 18 10 SSE 999,4 12 0,1
20.01.2018 15:00:00 3,7 3,0 3,7 11 6 22 12 S 1000,0 13 0,0
20.01.2018 14:00:00 3,4 2,6 3,5 14 8 22 12 S 1000,4 8 0,0
20.01.2018 13:00:00 3,3 2,5 3,3 11 6 18 10 SSE 1001,8 8 0,0
20.01.2018 12:00:00 3,2 2,4 2,8 11 6 22 12 S 1003,1 9 0,0
20.01.2018 11:00:00 2,0 1,5 1,5 14 8 22 12 S 1003,6 8 0,0
20.01.2018 10:00:00 1,2 0,7 0,8 14 8 22 12 S 1004,3 11 0,0
20.01.2018 09:00:00 1,1 0,5 0,4 14 8 29 16 S 1004,8 11 0,0
20.01.2018 08:00:00 0,9 0,2 0,2 18 10 25 14 S 1005,0 11 0,0
20.01.2018 07:00:00 1,1 0,5 0,5 14 8 22 12 SSW 1005,5 10 0,0
20.01.2018 06:00:00 1,2 0,4 0,5 18 10 22 12 SSW 1005,7 12 0,0
20.01.2018 05:00:00 1,4 0,5 0,7 18 10 25 14 SSW 1006,3 13 0,0
20.01.2018 04:00:00 1,4 0,5 0,7 14 8 29 16 SSW 1006,9 13 0,0
20.01.2018 03:00:00 1,6 0,5 0,7 14 8 25 14 SW 1007,4 19 0,0
20.01.2018 02:00:00 1,1 0,2 0,5 14 8 22 12 SSW 1007,7 17 0,0
20.01.2018 01:00:00 1,3 0,1 0,6 14 8 25 14 SSW 1007,9 43 0,2
20.01.2018 00:00:00 2,5 0,9 1,6 25 14 32 18 SW 1007,9 31 0,3
19.01.2018 23:00:00 2,6 1,0 1,9 18 10 25 14 SSW 1008,0 21 0,0
19.01.2018 22:00:00 2,6 0,6 1,7 18 10 25 14 SW 1007,9 28 0,0
19.01.2018 21:00:00 2,6 1,3 0,8 14 8 32 18 SSW 1007,9 21 0,0
19.01.2018 20:00:00 2,4 0,8 1,3 18 10 29 16 SW 1007,7 32 0,0
19.01.2018 19:00:00 2,3 0,3 1,6 18 10 29 16 SW 1007,8 48 0,0
19.01.2018 18:00:00 2,4 0,5 1,4 18 10 29 16 SW 1007,8 44 0,0
19.01.2018 17:00:00 3,1 0,9 2,3 14 8 29 16 WSW 1007,8 31 0,0
19.01.2018 16:00:00 5,0 1,3 3,8 18 10 25 14 WSW 1007,8 32 0,0
19.01.2018 15:00:00 4,4 2,3 3,9 14 8 29 16 SW 1007,7 32 0,0
19.01.2018 14:00:00 5,4 2,5 4,6 14 8 29 16 SW 1007,8 28 0,0
19.01.2018 13:00:00 5,0 2,3 4,9 18 10 29 16 SW 1007,8 30 0,0
19.01.2018 12:00:00 5,1 2,2 5,1 14 8 25 14 WSW 1007,9 29 0,0
19.01.2018 11:00:00 4,8 2,3 4,6 14 8 29 16 WSW 1007,9 27 0,0
19.01.2018 10:00:00 4,6 2,0 3,8 18 10 25 14 WSW 1007,4 28 0,0
19.01.2018 09:00:00 3,7 1,7 2,7 18 10 25 14 WSW 1006,9 16 0,0
19.01.2018 08:00:00 3,6 1,7 2,9 14 8 18 10 WSW 1006,2 26 0,0
19.01.2018 07:00:00 4,0 1,7 3,1 14 8 18 10 W 1005,5 28 0,0
19.01.2018 06:00:00 3,4 2,2 2,5 11 6 18 10 WSW 1005,1 18 0,0
19.01.2018 05:00:00 3,0 2,0 2,2 14 8 29 16 WSW 1004,2 24 0,3
19.01.2018 04:00:00 3,4 2,3 3,0 22 12 32 18 W 1004,0 25 1,3
19.01.2018 03:00:00 3,2 2,3 2,6 14 8 25 14 WSW 1003,5 30 0,3
19.01.2018 02:00:00 3,0 2,2 2,7 11 6 29 16 WSW 1003,1 3,0 3,0
19.01.2018 01:00:00 2,3 1,8 1,9 11 6 11 6 SSW 1002,6 7 0,0
19.01.2018 00:00:00 2,5 1,8 2,3 11 6 29 16 W 1002,5 16 2,8
18.01.2018 23:00:00 3,3 2,4 3,1 11 6 32 18 W 1001,9 5 1,1
18.01.2018 22:00:00 3,5 2,3 2,4 14 8 18 10 SSW 1001,5 28 0,0
18.01.2018 21:00:00 2,3 0,9 0,7 11 6 14 8 SW 1001,4 48 0,0
18.01.2018 20:00:00 1,6 0,2 -0,2 7 4 14 8 SSW 1001,4 27 0,0
18.01.2018 19:00:00 2,3 0,3 0,2 11 6 18 10 WSW 1001,4 32 0,0
18.01.2018 18:00:00 3,3 1,1 2,2 14 8 29 16 WSW 1001,3 38 0,0
18.01.2018 17:00:00 5,1 1,9 4,4 22 12 36 19 W 1001,1 42 0,0
18.01.2018 16:00:00 5,3 2,4 4,9 22 12 47 25 W 1000,7 36 0,0
18.01.2018 15:00:00 5,2 2,1 4,8 29 16 54 29 W 1000,0 42 0,1
18.01.2018 14:00:00 3,9 2,0 3,8 36 19 65 35 WNW 999,1 8 0,8
18.01.2018 13:00:00 5,1 2,8 5,0 43 23 76 41 WNW 997,6 6 0,5
18.01.2018 12:00:00 6,0 2,0 5,3 54 29 97 53 WNW 995,3 17 0,0
18.01.2018 11:00:00 5,8 2,2 5,4 65 35 115 62 W 991,4 10 0,0
18.01.2018 10:00:00 6,1 1,3 5,6 83 45 119 64 W 987,0 10 0,0

tt = Température de l'air
td = dewpoint
tt 5cm = Température de l'air 5cm
ff = Vitesse du vent
fx = gusts
dd = Direction du vent
ppp = reduced air pressure
vv = visibility
rr = Quantités de précipitations

stations d'obs. à proximité